Regional Weather Roundup
Issued by NWS

Home | Current Version | Previous Version | Text Only | Print | Product List | Glossary On
Versions: 1 2 3 4 5 6 7 8 9 10 11 12 13 14 15 16 17 18 19 20 21 22 23 24 25 26 27 28 29 30 31 32 33 34 35 36 37 38 39 40 41 42 43 44 45 46 47 48 49 50
000
ASUS45 KABQ 231001
RWRNM
WEATHER ROUNDUP FOR NEW MEXICO
NATIONAL WEATHER SERVICE ALBUQUERQUE NM
300 AM MST SUN NOV 23 2014

NOTE: "FAIR" MEANS FEW OR NO CLOUDS BELOW 12,000 FEET AGL WITH NO
       SIGNIFICANT WEATHER OR OBSTRUCTIONS TO VISION.

      THIS PRODUCT IS RELEASED AS TWO VERSIONS.  ONE VERSION NEAR
      THE TOP OF THE HOUR CONTAINING PRELIMINARY DATA FROM ALBUQUERQUE
      AND OTHER STATIONS.  A FINAL VERSION WITH ADDITIONAL DATA IS
      ISSUED ABOUT 10 MINUTES AFTER THE HOUR.

NMZ501-503-504-510>518-231100-
NORTHWEST PLATEAU/NORTHCENTRAL MOUNTAINS

CITY           SKY/WX    TMP DP  RH WIND       PRES   REMARKS
FARMINGTON     LGT RAIN  42  30  62 NW20G38   29.80F
SANTA FE       CLEAR     36  16  44 SW6       29.77S WCI  31
TAOS           CLOUDY    34  25  69 S6        29.77F WCI  29

$$
NMZ402-403-502-505>509-231100-
WESTCENTRAL MOUNTAINS/SOUTHWEST MOUNTAINS

CITY           SKY/WX    TMP DP  RH WIND       PRES   REMARKS
GALLUP         CLEAR     37  18  46 SW13      29.89S WCI  29
SILVER CITY    CLEAR     45  18  33 NW17G24   29.93F

$$
NMZ407-409-411-412-231100-
SOUTHERN DESERTS

CITY           SKY/WX    TMP DP  RH WIND       PRES   REMARKS
DEMING         CLEAR     44  20  38 W13       29.90S
HOLLOMAN AFB   PTCLDY    41  18  39 S7        29.80S
T OR C         CLEAR     42  17  36 CALM      29.83R

$$
NMZ519>523-231100-
CENTRAL VALLEYS/CENTRAL HIGHLANDS

CITY           SKY/WX    TMP DP  RH WIND       PRES   REMARKS
ALBUQUERQUE    MOCLDY    47  17  30 VRB5      29.79S
DOUBLE EAGLE   PTCLDY    42  17  36 W16       29.80S
CLINES CORNERS CLEAR     35  18  49 W20       29.74F WCI  24
BELEN          PTSUNNY   49  16  27 NW8G17    29.80F
SOCORRO        NOT AVBL

$$
NMZ524>526-539-540-231100-
SOUTHCENTRAL MOUNTAINS

CITY           SKY/WX    TMP DP  RH WIND       PRES   REMARKS
RUIDOSO        CLEAR     45  16  31 W14G22    29.80F

$$
NMZ527>531-231100-
NORTHEAST HIGHLANDS/NORTHEAST PLAINS

CITY           SKY/WX    TMP DP  RH WIND       PRES   REMARKS
LAS VEGAS      PTCLDY    37  21  52 W10       29.67F WCI  30
RATON          CLEAR     45  20  36 W14G30    29.61F
CLAYTON        MOCLDY    50  21  32 W21G31    29.51F

$$
NMZ532>537-231100-
EASTCENTRAL PLAINS

CITY           SKY/WX    TMP DP  RH WIND       PRES   REMARKS
TUCUMCARI        N/A     49  19  30 W14       29.58F
CANNON AFB     PTCLDY    43  16  33 SW3       29.73F
CLOVIS AIRPORT MOCLDY    52  18  25 W21G26    29.61S

$$
NMZ028-029-538-231100-
SOUTHEAST PLAINS

CITY           SKY/WX    TMP DP  RH WIND       PRES   REMARKS
ROSWELL        PTCLDY    42  24  49 NW3       29.67S
CARLSBAD       PTCLDY    59  17  19 W25G37    29.66S
HOBBS          MOCLDY    46  25  42 W8        29.68S


$$



USA.gov is the U.S. government's official web portal to all federal, state and local government web resources and services.